Newport, VT

12:40 PM EDT on March 23, 2017 (GMT -0400)
Newport State

Weather History for KEFK - June, 2013

Change the Weather History Date:

Tuesday, June 25, 2013

  Actual Average Record
Temperature  
Mean Temperature 72 °F -  
Max Temperature 82 °F 73 °F 92 °F (1946)
Min Temperature 61 °F 51 °F 40 °F (1941)
Cooling Degree Days 6    
Growing Degree Days 22 (Base 50)    
Moisture  
Dew Point 62 °F    
Average Humidity 79    
Maximum Humidity 91    
Minimum Humidity 56    
Precipitation  
Precipitation 0.00 in - - ()
Sea Level Pressure  
Sea Level Pressure 29.84 in    
Wind  
Wind Speed 5 mph (SSW)    
Max Wind Speed 13 mph    
Max Gust Speed 16 mph    
Visibility 9 miles    
Events Rain    
Averages and records for this station are not official NWS values.
T = Trace of Precipitation, MM = Missing Value Source: NWS Daily Summary

Daily Weather History Graph

Daily Weather History Graph

Search for Another Location

Airport or City:

Trip Planner

Search our weather history database for the weather conditions in past years. The results will help you decide how hot, cold, wet, or windy it might be!

Date:

Astronomy

Jun. 25, 2013 Rise Set
Actual Time 5:03 AM EDT 8:39 PM EDT
Civil Twilight 4:26 AM EDT 9:16 PM EDT
Nautical Twilight 3:37 AM EDT 10:06 PM EDT
Astronomical Twilight 2:31 AM EDT 11:11 PM EDT
Moon 10:13 PM EDT (6/25) 7:47 AM EDT (6/25)
Length of Visible Light 16h 50m
Length of Day
15h 35m
Waning Gibbous, 93% of the Moon is Illuminated
Jun 25
Waning Gibbous
Jun 30
Last Quarter
Jul 8
New
Jul 15
First Quarter
Jul 22
Full

Hourly Weather History & Observations

Time (EDT) Temp. Heat Index Dew Point Humidity Pressure Visibility Wind Dir Wind Speed Gust Speed Precip Events Conditions
12:15 AM 66.2 °F - 59.9 °F 80% 29.93 in 10.0 mi South 6.9 mph - N/A   Scattered Clouds
12:35 AM 65.1 °F - 59.9 °F 83% 29.92 in 10.0 mi South 6.9 mph - N/A   Scattered Clouds
12:55 AM 64.8 °F - 59.2 °F 82% 29.92 in 10.0 mi South 5.8 mph - N/A   Clear
1:15 AM 64.6 °F - 59.0 °F 82% 29.92 in 10.0 mi South 5.8 mph - N/A   Clear
1:35 AM 64.6 °F - 58.3 °F 80% 29.91 in 10.0 mi South 4.6 mph - N/A   Clear
1:55 AM 63.5 °F - 58.6 °F 84% 29.90 in 10.0 mi South 4.6 mph - N/A   Clear
2:15 AM 63.7 °F - 58.6 °F 84% 29.90 in 10.0 mi SSW 5.8 mph - N/A   Clear
2:35 AM 63.5 °F - 58.3 °F 83% 29.90 in 10.0 mi South 3.5 mph - N/A   Clear
2:55 AM 62.8 °F - 58.5 °F 86% 29.90 in 10.0 mi SSW 4.6 mph - N/A   Clear
3:15 AM 61.9 °F - 58.1 °F 87% 29.90 in 10.0 mi SSW 5.8 mph - N/A   Clear
3:35 AM 62.6 °F - 58.6 °F 87% 29.90 in 10.0 mi SSW 4.6 mph - N/A   Clear
3:55 AM 62.2 °F - 59.0 °F 89% 29.89 in 10.0 mi Calm Calm - N/A   Clear
4:15 AM 62.6 °F - 59.0 °F 88% 29.89 in 10.0 mi South 4.6 mph - N/A   Clear
4:35 AM 61.7 °F - 58.5 °F 89% 29.89 in 10.0 mi SSW 4.6 mph - N/A   Clear
4:55 AM 62.1 °F - 59.0 °F 90% 29.89 in 10.0 mi SSW 6.9 mph - N/A   Clear
5:15 AM 62.8 °F - 59.2 °F 88% 29.89 in 10.0 mi South 6.9 mph - N/A   Clear
5:35 AM 62.8 °F - 59.4 °F 89% 29.89 in 10.0 mi South 5.8 mph - N/A   Clear
5:55 AM 63.0 °F - 59.4 °F 88% 29.89 in 10.0 mi South 3.5 mph - N/A   Clear
6:15 AM 64.2 °F - 60.1 °F 86% 29.89 in 10.0 mi South 3.5 mph - N/A   Clear
6:35 AM 64.8 °F - 60.8 °F 87% 29.89 in 10.0 mi South 4.6 mph - N/A   Clear
6:55 AM 65.8 °F - 61.2 °F 85% 29.89 in 10.0 mi SSW 3.5 mph - N/A   Clear
7:15 AM 67.6 °F - 61.9 °F 82% 29.88 in 10.0 mi SSW 4.6 mph - N/A   Clear
7:35 AM 68.7 °F - 63.1 °F 82% 29.87 in 10.0 mi SSW 4.6 mph - N/A   Clear
7:55 AM 69.1 °F - 63.5 °F 82% 29.87 in 10.0 mi Calm Calm - N/A   Clear
8:15 AM 70.5 °F - 63.9 °F 79% 29.87 in 10.0 mi SSE 3.5 mph - N/A   Clear
8:35 AM 72.3 °F - 64.2 °F 76% 29.86 in 10.0 mi SSE 6.9 mph - N/A   Clear
8:55 AM 73.2 °F - 64.6 °F 74% 29.86 in 10.0 mi South 6.9 mph - N/A   Clear
9:15 AM 75.0 °F - 65.8 °F 73% 29.86 in 10.0 mi South 4.6 mph - N/A   Clear
9:35 AM 76.5 °F - 66.7 °F 72% 29.85 in 10.0 mi SSW 3.5 mph - N/A   Clear
9:55 AM 78.8 °F - 66.9 °F 67% 29.85 in 10.0 mi WSW 8.1 mph - N/A   Clear
10:15 AM 79.2 °F - 66.6 °F 65% 29.85 in 10.0 mi WSW 8.1 mph - N/A   Clear
10:35 AM 79.2 °F - 65.7 °F 63% 29.86 in 10.0 mi WSW 8.1 mph - N/A   Scattered Clouds
10:55 AM 79.3 °F - 66.4 °F 64% 29.86 in 10.0 mi WSW 8.1 mph - N/A   Mostly Cloudy
11:15 AM 80.2 °F 82.3 °F 66.2 °F 62% 29.86 in 10.0 mi SW 9.2 mph - N/A   Mostly Cloudy
11:35 AM 80.6 °F 82.7 °F 66.2 °F 61% 29.85 in 10.0 mi SW 8.1 mph - N/A   Scattered Clouds
11:55 AM 80.4 °F 82.3 °F 65.5 °F 60% 29.85 in 10.0 mi SW 4.6 mph - N/A   Scattered Clouds
12:15 PM 80.6 °F 82.7 °F 65.8 °F 61% 29.84 in 10.0 mi SW 5.8 mph - N/A   Scattered Clouds
12:35 PM 80.8 °F 82.6 °F 65.3 °F 59% 29.84 in 10.0 mi SSW 3.5 mph - N/A   Scattered Clouds
12:55 PM 81.3 °F 82.9 °F 64.0 °F 56% 29.83 in 10.0 mi Calm Calm - N/A   Mostly Cloudy
1:15 PM 82.8 °F 84.9 °F 66.0 °F 57% 29.82 in 10.0 mi SW 3.5 mph - N/A   Mostly Cloudy
1:35 PM 81.0 °F 82.6 °F 64.2 °F 57% 29.80 in 10.0 mi WNW 6.9 mph - N/A   Mostly Cloudy
1:55 PM 77.9 °F - 66.7 °F 68% 29.80 in 10.0 mi South 3.5 mph - N/A   Scattered Clouds
2:15 PM 76.8 °F - 64.8 °F 66% 29.79 in 10.0 mi Calm Calm - N/A   Scattered Clouds
2:35 PM 75.0 °F - 68.2 °F 79% 29.79 in 10.0 mi Calm Calm - N/A   Scattered Clouds
2:55 PM 77.0 °F - 65.3 °F 67% 29.79 in 10.0 mi West 4.6 mph - N/A   Clear
3:15 PM 76.1 °F - 64.2 °F 67% 29.79 in 10.0 mi West 11.5 mph 16.1 mph N/A   Scattered Clouds
3:35 PM 72.7 °F - 59.9 °F 64% 29.78 in 7.0 mi WNW 12.7 mph - N/A Rain Light Rain
3:55 PM 69.3 °F - 59.2 °F 70% 29.79 in 7.0 mi WSW 11.5 mph - N/A Rain Rain
4:15 PM 68.9 °F - 61.2 °F 76% 29.78 in 10.0 mi SW 5.8 mph - N/A Rain Light Rain
4:35 PM 68.9 °F - 60.6 °F 75% 29.78 in 10.0 mi SW 10.4 mph - N/A   Scattered Clouds
4:55 PM 68.5 °F - 61.0 °F 77% 29.79 in 10.0 mi SSW 8.1 mph - N/A   Clear
5:15 PM 68.0 °F - 61.7 °F 80% 29.79 in 10.0 mi SSW 6.9 mph - N/A   Clear
5:35 PM 67.1 °F - 61.2 °F 81% 29.79 in 10.0 mi South 5.8 mph - N/A   Clear
5:55 PM 66.9 °F - 61.7 °F 83% 29.80 in 10.0 mi SSE 5.8 mph - N/A Rain Light Rain
6:15 PM 66.2 °F - 62.1 °F 86% 29.80 in 5.0 mi South 5.8 mph - N/A Rain Light Rain
6:35 PM 66.2 °F - 62.6 °F 88% 29.79 in 4.0 mi South 4.6 mph - N/A Rain Rain
6:55 PM 66.2 °F - 62.8 °F 89% 29.78 in 7.0 mi SSE 8.1 mph - N/A Rain Light Rain
7:15 PM 66.2 °F - 62.8 °F 89% 29.80 in 7.0 mi Calm Calm - N/A   Drizzle
7:35 PM 66.2 °F - 63.0 °F 89% 29.79 in 5.0 mi SE 3.5 mph - N/A   Light Drizzle
7:55 PM 66.2 °F - 62.8 °F 89% 29.79 in 7.0 mi South 3.5 mph - N/A   Light Drizzle
8:15 PM 66.2 °F - 62.8 °F 89% 29.79 in 7.0 mi South 4.6 mph - N/A   Light Drizzle
8:35 PM 65.8 °F - 62.6 °F 89% 29.79 in 7.0 mi SE 3.5 mph - N/A   Overcast
8:55 PM 65.7 °F - 62.8 °F 90% 29.79 in 7.0 mi South 4.6 mph - N/A   Overcast
9:15 PM 66.0 °F - 62.8 °F 89% 29.78 in 7.0 mi SSW 5.8 mph - N/A   Overcast
9:35 PM 65.8 °F - 63.0 °F 90% 29.77 in 7.0 mi South 3.5 mph - N/A   Scattered Clouds
9:55 PM 65.7 °F - 62.8 °F 90% 29.78 in 7.0 mi South 4.6 mph - N/A   Scattered Clouds
10:15 PM 65.7 °F - 62.8 °F 90% 29.78 in 7.0 mi South 3.5 mph - N/A   Scattered Clouds
10:35 PM 65.3 °F - 62.2 °F 90% 29.77 in 7.0 mi South 6.9 mph - N/A   Clear
10:55 PM 64.8 °F - 61.9 °F 90% 29.77 in 7.0 mi SSW 4.6 mph - N/A   Clear
11:15 PM 64.4 °F - 61.7 °F 91% 29.77 in 5.0 mi SSE 3.5 mph - N/A   Clear
11:35 PM 64.6 °F - 61.7 °F 90% 29.78 in 7.0 mi Calm Calm - N/A   Clear
11:55 PM 63.7 °F - 60.8 °F 90% 29.78 in 5.0 mi Calm Calm - N/A   Clear